N0HOT Weather Reports


Display with metric or nautical units.
time (UTC)temp
F
wind
direction
speed
MPH
gust
MPH
rain 1hr
in
rain 24hr
in
rain mn
in
humidity
%
barometer
mb
20260903234358 80 87 1.0 1.0 0.00 0.20 0.20 75 1009.8
20260903233854 81 87 0.0 1.0 0.00 0.20 0.20 75 1009.8
20260903233350 81 87 1.0 1.0 0.00 0.20 0.20 74 1010.1
20260903232849 81 87 0.0 0.0 0.00 0.20 0.20 74 1010.5
20260903232345 81 87 1.0 2.0 0.00 0.20 0.20 74 1010.1
20260903231844 81 87 0.0 0.0 0.00 0.20 0.20 73 1010.5
20260903231339 81 87 0.0 0.0 0.00 0.20 0.20 73 1010.1
20260903230835 81 87 0.0 1.0 0.00 0.20 0.20 73 1010.5
20260903230330 82 87 0.0 0.0 0.00 0.20 0.20 72 1010.1
20260903225826 82 87 0.0 1.0 0.00 0.20 0.20 72 1010.1
20260903225322 82 87 0.0 1.0 0.00 0.20 0.20 72 1010.1
20260903224818 82 87 0.0 1.0 0.00 0.20 0.20 72 1010.1
20260903224313 82 87 0.0 1.0 0.00 0.20 0.20 71 1010.1
20260903223804 83 87 0.0 1.0 0.00 0.20 0.20 71 1010.5
20260903223302 83 87 1.0 1.0 0.00 0.20 0.20 70 1010.5
20260903222757 83 104 0.0 0.0 0.00 0.20 0.20 69 1010.1
20260903222256 83 104 0.0 0.0 0.00 0.20 0.20 69 1010.5
20260903221750 83 104 1.0 1.0 0.00 0.20 0.20 70 1010.1
20260903221244 83 106 1.0 1.0 0.00 0.20 0.20 69 1010.5
20260903220742 83 78 0.0 0.0 0.00 0.20 0.20 68 1010.1
20260903220237 84 78 1.0 1.0 0.00 0.20 0.20 68 1010.1
20260903215736 84 78 0.0 0.0 0.00 0.20 0.20 67 1010.5
20260903215232 84 78 0.0 1.0 0.00 0.20 0.20 67 1010.5
20260903214729 84 78 1.0 1.0 0.00 0.20 0.20 66 1010.5
20260903214226 85 78 1.0 1.0 0.00 0.20 0.20 66 1010.5
20260903213720 85 78 1.0 1.0 0.00 0.20 0.20 64 1010.5
20260903213216 85 78 1.0 1.0 0.00 0.20 0.20 64 1010.5
20260903212712 85 78 0.0 1.0 0.00 0.20 0.20 63 1010.5
20260903212208 85 78 0.0 0.0 0.00 0.20 0.20 64 1010.5
20260903211701 85 78 0.0 1.0 0.00 0.20 0.20 63 1010.5
20260903211158 84 74 0.0 1.0 0.00 0.20 0.20 60 1011.1
20260903210654 83 88 0.0 0.0 0.00 0.20 0.20 62 1010.8
20260903210150 83 251 0.0 0.0 0.00 0.20 0.20 63 1010.8
20260903205649 82 69 1.0 1.0 0.00 0.20 0.20 68 1010.8
20260903205148 82 77 1.0 1.0 0.00 0.20 0.20 65 1010.8
20260903204644 81 154 1.0 2.0 0.00 0.20 0.20 71 1011.1
20260903204140 81 85 1.0 1.0 0.00 0.20 0.20 70 1010.8
20260903203635 81 69 0.0 1.0 0.00 0.20 0.20 71 1010.8
20260903203130 81 85 0.0 0.0 0.00 0.20 0.20 71 1011.1
20260903202625 81 89 0.0 0.0 0.00 0.20 0.20 73 1010.8
20260903202120 81 64 0.0 1.0 0.00 0.20 0.20 72 1011.1
20260903201615 81 63 0.0 1.0 0.00 0.20 0.20 72 1011.1
20260903201114 81 63 0.0 1.0 0.00 0.20 0.20 71 1010.8
20260903200610 81 63 0.0 0.0 0.00 0.20 0.20 70 1011.1
20260903200104 81 63 0.0 0.0 0.00 0.20 0.20 69 1011.1
20260903195601 81 63 0.0 0.0 0.00 0.20 0.20 71 1011.1
20260903195056 81 64 0.0 1.0 0.00 0.20 0.20 70 1011.1
20260903194551 81 64 0.0 1.0 0.00 0.20 0.20 68 1011.1
20260903194046 81 64 1.0 1.0 0.00 0.20 0.20 71 1011.1
20260903193542 81 64 1.0 1.0 0.00 0.20 0.20 71 1011.1
20260903193037 82 64 0.0 1.0 0.00 0.20 0.20 72 1010.8
20260903192534 82 64 1.0 1.0 0.00 0.20 0.20 74 1011.1
20260903192034 82 64 1.0 1.0 0.00 0.20 0.20 70 1011.1
20260903191531 81 64 1.0 1.0 0.00 0.20 0.20 72 1011.5
20260903191025 81 64 0.0 0.0 0.00 0.20 0.20 74 1011.5
20260903190524 80 64 0.0 0.0 0.00 0.20 0.20 75 1011.5
20260903190024 80 63 0.0 0.0 0.00 0.20 0.20 75 1011.8
20260903185520 80 61 0.0 0.0 0.00 0.20 0.20 75 1011.8
20260903185015 80 61 0.0 0.0 0.00 0.20 0.20 74 1011.8
20260903184506 80 61 0.0 1.0 0.00 0.20 0.20 73 1011.5
20260903184006 80 62 0.0 0.0 0.00 0.20 0.20 76 1011.5
20260903183500 79 61 0.0 0.0 0.00 0.20 0.20 76 1011.5
20260903183000 78 61 0.0 0.0 0.00 0.20 0.20 76 1011.5
20260903182458 78 66 0.0 1.0 0.00 0.20 0.20 79 1011.5
20260903181954 77 65 0.0 1.0 0.00 0.20 0.20 77 1011.1
20260903181448 77 65 0.0 0.0 0.00 0.20 0.20 77 1011.1
20260903180948 76 65 0.0 0.0 0.00 0.20 0.20 79 1011.5
20260903180443 76 65 0.0 1.0 0.00 0.20 0.20 81 1011.1
20260903175942 75 65 0.0 0.0 0.00 0.20 0.20 81 1011.5
20260903175437 75 65 0.0 1.0 0.00 0.20 0.20 84 1011.1
20260903174930 75 65 0.0 1.0 0.00 0.20 0.20 85 1011.8
20260903174426 75 65 0.0 0.0 0.00 0.20 0.20 87 1011.5
20260903173926 75 66 0.0 0.0 0.00 0.20 0.20 87 1011.5
20260903173426 74 65 1.0 1.0 0.00 0.20 0.20 88 1011.8
20260903172921 74 59 0.0 1.0 0.00 0.20 0.20 88 1011.5
20260903172416 73 52 0.0 0.0 0.00 0.20 0.20 89 1011.8
20260903171912 72 50 1.0 1.0 0.00 0.20 0.20 89 1011.8
20260903171407 71 52 0.0 0.0 0.00 0.20 0.20 89 1011.5
20260903170906 71 52 0.0 1.0 0.00 0.20 0.20 89 1011.5
20260903170402 71 52 1.0 2.0 0.00 0.20 0.20 89 1011.1
20260903165900 70 53 0.0 1.0 0.00 0.20 0.20 89 1011.1
20260903165355 70 53 1.0 2.0 0.00 0.20 0.20 89 1011.1
20260903164849 70 51 0.0 1.0 0.00 0.20 0.20 89 1010.8
20260903164344 70 49 1.0 1.0 0.00 0.20 0.20 89 1011.5
20260903163844 70 39 1.0 1.0 0.00 0.20 0.20 89 1011.8
20260903163341 70 39 1.0 1.0 0.00 0.20 0.20 89 1011.8
20260903162836 70 39 0.0 0.0 0.00 0.20 0.20 89 1011.8
20260903162333 70 54 0.0 1.0 0.00 0.20 0.20 89 1011.8
20260903161828 70 54 0.0 1.0 0.00 0.20 0.20 89 1011.5
20260903161324 70 54 1.0 1.0 0.00 0.20 0.20 89 1011.5
20260903160819 70 46 1.0 1.0 0.00 0.20 0.20 89 1011.8
20260903160318 70 45 0.0 0.0 0.00 0.20 0.20 89 1012.5
20260903155817 70 42 1.0 1.0 0.00 0.20 0.20 89 1012.8
20260903155312 70 43 0.0 0.0 0.00 0.20 0.20 89 1013.2
20260903154808 70 43 0.0 0.0 0.00 0.20 0.20 89 1012.5
20260903154304 70 43 0.0 0.0 0.00 0.20 0.20 89 1012.5
20260903153759 70 288 1.0 2.0 0.07 0.20 0.20 89 1012.5
20260903153255 70 49 1.0 1.0 0.07 0.20 0.20 89 1012.2
20260903152751 70 51 0.0 0.0 0.00 0.19 0.19 89 1011.8
20260903152247 70 51 0.0 0.0 0.00 0.19 0.19 89 1011.8
20260903151746 70 28 0.0 0.0 0.05 0.19 0.19 88 1011.8
20260903151242 70 21 0.0 0.0 0.00 0.18 0.18 88 1012.2
20260903150737 70 350 1.0 2.0 0.00 0.18 0.18 88 1012.2
20260903150236 70 302 1.0 1.0 0.07 0.18 0.18 88 1011.8
20260903145731 70 42 0.0 1.0 0.12 0.18 0.18 88 1011.1
20260903145227 70 36 1.0 1.0 0.05 0.17 0.17 88 1011.1
20260903144725 70 27 0.0 0.0 0.00 0.16 0.16 88 1012.2
20260903144221 70 338 0.0 1.0 0.00 0.16 0.16 88 1011.8
20260903143717 69 38 0.0 0.0 0.00 0.16 0.16 88 1011.1
20260903143213 69 38 0.0 0.0 0.00 0.16 0.16 88 1011.1
20260903142708 69 38 0.0 0.0 0.00 0.16 0.16 88 1011.8
20260903142204 69 38 0.0 0.0 0.00 0.16 0.16 88 1011.8
20260903141659 69 42 0.0 0.0 0.00 0.16 0.16 88 1011.8
20260903141154 69 42 0.0 0.0 0.00 0.16 0.16 88 1011.8
20260903140650 69 42 0.0 0.0 0.00 0.16 0.16 88 1012.2
20260903140146 69 38 1.0 1.0 0.00 0.16 0.16 88 1012.2
20260903135642 69 29 0.0 1.0 0.07 0.16 0.16 88 1012.2
20260903135136 69 31 0.0 0.0 0.07 0.16 0.16 88 1012.5
20260903134635 69 31 0.0 0.0 0.00 0.15 0.15 88 1012.2
20260903134131 69 37 1.0 2.0 0.00 0.15 0.15 88 1012.8
20260903133629 69 37 0.0 0.0 0.00 0.15 0.15 88 1012.8
20260903133125 69 42 0.0 0.0 0.05 0.15 0.15 88 1012.2
20260903132625 69 42 0.0 0.0 0.00 0.14 0.14 88 1012.8
20260903132119 69 42 2.0 2.0 0.07 0.14 0.14 88 1013.2
20260903131614 69 43 1.0 1.0 0.05 0.13 0.13 87 1012.8
20260903131113 69 43 0.0 0.0 0.05 0.13 0.13 87 1013.2
20260903130609 69 42 0.0 1.0 0.07 0.12 0.12 87 1013.2
20260903130057 69 42 0.0 0.0 0.14 0.12 0.12 87 1013.2
20260903125555 69 32 0.0 0.0 0.12 0.11 0.11 87 1013.6
20260903125050 69 31 0.0 0.0 0.17 0.10 0.10 87 1013.9
20260903124550 69 12 0.0 0.0 0.12 0.08 0.08 87 1014.3
20260903124045 69 4 0.0 1.0 0.12 0.07 0.07 86 1014.6
20260903123544 69 7 1.0 2.0 0.05 0.06 0.06 86 1014.6
20260903123043 69 359 2.0 3.0 0.07 0.05 0.05 86 1013.9
20260903122543 70 37 0.0 0.0 0.07 0.05 0.05 86 1013.9
20260903122043 70 36 0.0 0.0 0.00 0.04 0.04 86 1013.6
20260903121537 70 33 0.0 0.0 0.00 0.04 0.04 86 1013.2
20260903121033 70 26 0.0 0.0 0.00 0.04 0.04 86 1013.6
20260903120532 70 6 2.0 3.0 0.05 0.04 0.04 87 1013.6
20260903120027 70 250 0.0 1.0 0.05 0.04 0.04 87 1013.6
20260903115525 70 37 0.0 1.0 0.00 0.03 0.03 87 1013.2
20260903115020 70 37 1.0 1.0 0.00 0.03 0.03 87 1013.2
20260903114515 70 41 0.0 0.0 0.07 0.03 0.03 87 1013.6
20260903114011 70 6 1.0 1.0 0.07 0.03 0.03 87 1013.6
20260903113507 70 341 0.0 0.0 0.05 0.02 0.02 87 1013.2
20260903113003 70 178 1.0 1.0 0.12 0.02 0.02 87 1013.2
20260903112458 70 219 0.0 1.0 0.07 0.01 0.01 88 1012.8
20260903111957 69 333 2.0 3.0 0.00 0.00 0.00 88 1012.5
20260903111451 69 325 2.0 2.0 0.00 0.00 0.00 88 1012.2
20260903110947 69 248 2.0 2.0 0.00 0.00 0.00 88 1012.2
20260903110443 69 89 0.0 0.0 0.00 0.00 0.00 88 1011.8
20260903105937 69 89 0.0 0.0 0.00 0.00 0.00 88 1011.8
20260903105433 69 89 0.0 0.0 0.00 0.00 0.00 88 1011.5
20260903104932 69 92 0.0 0.0 0.00 0.00 0.00 88 1011.5
20260903104432 69 104 0.0 0.0 0.00 0.00 0.00 88 1011.8
20260903103929 69 123 0.0 0.0 0.00 0.00 0.00 88 1011.8
20260903103424 69 163 1.0 1.0 0.00 0.00 0.00 88 1011.5
20260903102920 69 131 0.0 0.0 0.00 0.00 0.00 88 1011.8
20260903102415 69 22 0.0 0.0 0.00 0.00 0.00 88 1011.5
20260903101914 69 351 0.0 0.0 0.00 0.00 0.00 88 1011.5
20260903101409 69 25 0.0 0.0 0.00 0.00 0.00 88 1011.1
20260903100904 69 280 1.0 2.0 0.00 0.00 0.00 88 1011.1
20260903100359 69 13 2.0 2.0 0.00 0.00 0.00 88 1011.1
20260903095856 69 39 1.0 1.0 0.00 0.00 0.00 88 1010.8
20260903095350 69 40 0.0 1.0 0.00 0.00 0.00 88 1010.8
20260903094846 69 35 0.0 1.0 0.00 0.00 0.00 88 1011.1
20260903094345 69 261 4.0 4.0 0.00 0.00 0.00 88 1011.1
20260903093842 69 33 0.0 0.0 0.00 0.00 0.00 88 1010.8
20260903093337 69 62 0.0 0.0 0.00 0.00 0.00 88 1010.8
20260903092832 69 62 0.0 0.0 0.00 0.00 0.00 88 1010.5
20260903092326 69 62 0.0 0.0 0.00 0.00 0.00 88 1010.8
20260903091825 69 62 0.0 0.0 0.00 0.00 0.00 88 1010.8
20260903091319 69 62 0.0 0.0 0.00 0.00 0.00 88 1010.5
20260903090815 69 62 0.0 0.0 0.00 0.00 0.00 88 1010.5
20260903090315 69 62 0.0 0.0 0.00 0.00 0.00 88 1010.5
20260903085813 69 62 0.0 0.0 0.00 0.00 0.00 88 1010.8
20260903085307 69 62 0.0 0.0 0.00 0.00 0.00 88 1010.8
20260903084806 69 62 0.0 0.0 0.00 0.00 0.00 88 1010.5
20260903084306 69 62 0.0 0.0 0.00 0.00 0.00 88 1010.8
20260903083756 69 62 0.0 0.0 0.00 0.00 0.00 88 1011.1
20260903083256 69 62 0.0 0.0 0.00 0.00 0.00 88 1010.8
20260903082755 69 62 0.0 0.0 0.00 0.00 0.00 88 1011.1
20260903082251 69 62 0.0 0.0 0.00 0.00 0.00 88 1010.8
20260903081751 70 62 0.0 0.0 0.00 0.00 0.00 88 1010.8
20260903081247 70 62 0.0 0.0 0.00 0.00 0.00 88 1010.8
20260903080743 70 62 0.0 0.0 0.00 0.00 0.00 88 1010.8
20260903080240 70 62 0.0 0.0 0.00 0.00 0.00 88 1010.8
20260903075740 70 62 0.0 0.0 0.00 0.00 0.00 88 1010.8
20260903075235 70 62 0.0 0.0 0.00 0.00 0.00 88 1010.8
20260903074733 70 62 0.0 0.0 0.00 0.00 0.00 88 1010.8
20260903074231 70 62 0.0 0.0 0.00 0.00 0.00 88 1010.5
20260903073724 70 62 0.0 0.0 0.00 0.00 0.00 88 1010.8
20260903073219 70 62 0.0 0.0 0.00 0.00 0.00 87 1010.8
20260903072715 70 62 0.0 0.0 0.00 0.00 0.00 87 1010.5
20260903072212 70 62 0.0 0.0 0.00 0.00 0.00 87 1010.8
20260903071707 70 62 0.0 0.0 0.00 0.00 0.00 87 1010.8
20260903071203 70 62 0.0 0.0 0.00 0.00 0.00 87 1010.5
20260903070657 70 62 0.0 0.0 0.00 0.00 0.00 87 1010.8
20260903070153 70 62 0.0 0.0 0.00 0.00 0.00 87 1011.1
20260903065653 70 62 0.0 0.0 0.00 0.00 0.00 87 1011.1
20260903065147 71 62 0.0 0.0 0.00 0.00 0.00 87 1011.1
20260903064646 71 62 0.0 0.0 0.00 0.00 0.00 87 1011.1
20260903064142 71 62 0.0 0.0 0.00 0.00 0.00 87 1011.1
20260903063637 71 62 0.0 0.0 0.00 0.00 0.00 87 1011.1
20260903063132 71 62 0.0 0.0 0.00 0.00 0.00 87 1011.1
20260903062628 71 62 0.0 0.0 0.00 0.00 0.00 87 1011.1
20260903062123 71 62 0.0 0.0 0.00 0.00 0.00 87 1011.1
20260903061618 71 62 0.0 0.0 0.00 0.00 0.00 87 1011.1
20260903061117 71 62 0.0 0.0 0.00 0.00 0.00 87 1011.5
20260903060613 71 62 0.0 0.0 0.00 0.00 0.00 87 1011.1
20260903060108 71 62 0.0 0.0 0.00 0.00 0.00 87 1011.1
20260903055606 71 62 0.0 0.0 0.00 0.00 0.00 87 1011.1
20260903055104 71 62 0.0 0.0 0.00 0.00 0.00 87 1011.1
20260903054559 71 62 0.0 0.0 0.00 0.00 0.00 87 1011.5
20260903054055 71 62 0.0 0.0 0.00 0.00 0.00 87 1011.1
20260903053550 71 62 0.0 0.0 0.00 0.00 0.00 86 1011.1
20260903053047 71 62 0.0 0.0 0.00 0.00 0.00 86 1011.1
20260903052542 71 62 0.0 0.0 0.00 0.00 0.00 86 1011.1
20260903052038 71 62 0.0 0.0 0.00 0.00 0.00 86 1011.5
20260903051537 71 62 0.0 0.0 0.00 0.00 0.00 86 1011.5
20260903051033 72 62 0.0 0.0 0.00 0.00 0.00 86 1011.5
20260903050532 72 62 0.0 0.0 0.00 0.00 0.00 86 1011.5
20260903050028 72 62 0.0 0.0 0.00 0.19 0.19 86 1011.1
20260903045527 72 62 0.0 0.0 0.00 0.19 0.19 86 1011.5
20260903045024 72 62 0.0 0.0 0.00 0.19 0.19 85 1011.8
20260903044519 72 62 0.0 0.0 0.00 0.19 0.19 85 1011.8
20260903044015 72 62 0.0 0.0 0.00 0.19 0.19 85 1011.5
20260903043510 72 62 0.0 0.0 0.00 0.19 0.19 85 1011.5
20260903043010 72 62 0.0 0.0 0.00 0.19 0.19 85 1011.5
20260903042504 72 62 0.0 0.0 0.00 0.19 0.19 85 1011.5
20260903042000 72 62 0.0 0.0 0.00 0.19 0.19 84 1011.5
20260903041457 72 62 0.0 0.0 0.00 0.19 0.19 84 1011.5
20260903040952 72 62 0.0 0.0 0.00 0.19 0.19 84 1011.5
20260903040450 73 62 0.0 0.0 0.00 0.19 0.19 83 1011.8
20260903035947 73 62 0.0 0.0 0.00 0.19 0.19 83 1011.5
20260903035442 73 62 0.0 0.0 0.00 0.19 0.19 83 1011.8
20260903034937 73 62 0.0 0.0 0.00 0.19 0.19 82 1011.5
20260903034432 73 62 0.0 0.0 0.00 0.19 0.19 82 1011.8
20260903033927 73 62 0.0 0.0 0.00 0.19 0.19 81 1011.8
20260903033422 73 62 0.0 0.0 0.00 0.19 0.19 81 1011.5
20260903032918 73 62 0.0 0.0 0.00 0.19 0.19 81 1011.8
20260903032413 73 62 0.0 0.0 0.00 0.19 0.19 81 1011.8
20260903031908 74 62 0.0 0.0 0.00 0.19 0.19 81 1011.8
20260903031407 74 62 0.0 0.0 0.00 0.19 0.19 80 1011.8
20260903030903 74 62 0.0 0.0 0.00 0.19 0.19 80 1011.8
20260903030359 74 62 0.0 0.0 0.00 0.19 0.19 79 1011.8
20260903025855 74 62 0.0 0.0 0.00 0.19 0.19 79 1011.5
20260903025350 74 62 0.0 0.0 0.00 0.19 0.19 78 1011.8
20260903024850 74 62 0.0 0.0 0.00 0.19 0.19 78 1011.8
20260903024344 75 62 0.0 0.0 0.00 0.19 0.19 77 1011.8
20260903023839 75 62 0.0 0.0 0.00 0.19 0.19 77 1011.8
20260903023335 75 62 0.0 0.0 0.00 0.19 0.19 77 1011.8
20260903022830 75 62 0.0 0.0 0.00 0.19 0.19 76 1011.8
20260903022329 75 62 0.0 0.0 0.00 0.19 0.19 76 1011.8
20260903021822 75 62 0.0 0.0 0.00 0.19 0.19 75 1011.5
20260903021319 75 62 0.0 0.0 0.00 0.19 0.19 75 1011.8
20260903020818 75 62 0.0 0.0 0.00 0.19 0.19 75 1011.8
20260903020313 76 62 0.0 0.0 0.00 0.19 0.19 74 1011.5
20260903015808 76 62 0.0 0.0 0.00 0.19 0.19 74 1011.8
20260903015306 76 62 0.0 1.0 0.00 0.19 0.19 73 1011.5
20260903014759 76 62 0.0 0.0 0.00 0.19 0.19 73 1011.5
20260903014258 77 62 0.0 0.0 0.00 0.19 0.19 72 1011.5
20260903013754 77 62 0.0 0.0 0.00 0.19 0.19 72 1011.1
20260903013252 77 62 0.0 0.0 0.00 0.19 0.19 72 1011.5
20260903012751 77 62 0.0 0.0 0.00 0.19 0.19 72 1011.1
20260903012246 78 62 0.0 0.0 0.00 0.19 0.19 71 1011.1
20260903011745 78 62 0.0 0.0 0.00 0.19 0.19 71 1011.1
20260903011244 78 62 0.0 0.0 0.00 0.19 0.19 70 1011.1
20260903010740 78 62 0.0 0.0 0.00 0.19 0.19 69 1011.1
20260903010236 79 62 0.0 0.0 0.00 0.19 0.19 69 1010.8
20260903005734 79 62 0.0 0.0 0.00 0.19 0.19 68 1011.1
20260903005229 79 62 0.0 0.0 0.00 0.19 0.19 68 1010.8
20260903004725 79 62 0.0 0.0 0.00 0.19 0.19 68 1011.1
20260903004220 80 62 0.0 0.0 0.00 0.19 0.19 68 1010.8
20260903003715 80 62 0.0 1.0 0.00 0.19 0.19 67 1011.1
20260903003211 80 62 0.0 0.0 0.00 0.19 0.19 67 1011.1
20260903002705 81 62 0.0 1.0 0.00 0.19 0.19 67 1011.1
20260903002159 81 62 0.0 1.0 0.00 0.19 0.19 66 1011.1
20260903001655 82 62 1.0 1.0 0.00 0.19 0.19 65 1010.8
20260903001149 82 62 1.0 1.0 0.00 0.19 0.19 64 1010.8
20260903000645 83 62 1.0 1.0 0.00 0.19 0.19 63 1011.1
20260903000144 83 62 0.0 0.0 0.00 0.19 0.19 62 1011.1
20260902235643 83 62 0.0 0.0 0.00 0.19 0.19 63 1011.1
20260902235138 84 62 0.0 0.0 0.00 0.19 0.19 63 1010.8